Location: Cerbedi�res
(48.2182°N, 1.4849°W)
Time: 02:18:42
(UTC+00:00)

Cosmos 2219 Rocket - Pass Details

Date: 03 March 2021
Orbit: 826 x 848 km, 71.0° (Epoch: 17 April)

Event Time Altitude Azimuth Distance (km) Brightness Sun altitude
Rises 19:23:26 0° 176° (S) 3,352 5.2 -15.8°
Reaches altitude 10° 19:26:04 10° 167° (SSE) 2,425 4.4 -16.2°
Maximum altitude 19:30:58 33° 105° (ESE) 1,372 2.7 -17.0°
Drops below altitude 10° 19:35:54 10° 44° (NE) 2,450 4.3 -17.8°
Sets 19:38:33 0° 35° (NE) 3,392 5.1 -18.2°
